SCP
0 0 0 0 0 0 0 0 0 0 0 0 0 0 0 0 0 0 0 0 0 0 0 0 0 0 0 0 0 0 0 0 -0 -0 -0 -0 -0 -0 -0 -0 -0 -0 -0
0 0 0 0 0 0 0 0 0 0 0 0 0 0 0 0 0 0 0 0 0 0 0 0 0 0 0 0 0 0 0 0 0 -0 -0 -0 -0 -0 -0 -0 0 0 0
0 0 0 0 0 0 0 0 0 0 0 0 0 0 0 0 0 0 0 0 0 0 0 0 0 0 0 0 0 0 0 0 0 0 0 0 0 0 0 0 0 0 0
0 0 0 0 0 0 0 0 0 0 0 0 0 0 0 0 0 0 0 0 0 0 0 0 0 0 0 0 0 0 0 0 0 0 0 0 0 0 0 0 0 0 0
0 0 0 0 0 0 0 0 0 0 0 0 0 0 0 0 0 0 0 0 0 0 0 0 0 0 0 0 0 0 0 0 0 0 0 0 0 0 0 0 0 0 0
0 0 0 0 0 0 0 0 0 0 0 0 0 0 0 0 0 0 0 0 0 0 0 0 0 0 0 0 0 0 0 0 0 0 0 0 0 0 0 0 0 0 0
0 0 0 0 0 0 0 0 0 0 0 0 0 0 0 0 0 0 0 0 0 0 0 0 0 0 0 0 0 0 0 0 0 0 0 0 0 0 0 0 0 0 0
0 0 0 0 0 0 0 0 0 0 0 0 0 0 0 0 0 0 0 0 0 0 0 0 0 0 0 0 0 0 0 0 0 0 0 0 0 0 0 0 0 0 0
0 0 0 0 0 0 0 0 0 0 0 0 0 0 0 0 0 0 0 0 0 0 0 0 0 0 0 0 0 0 0 0 0 0 0 0 0 0 0 0 0 0 0
0 0 0 0 0 0 0 0 0 0 0 0 0 0 0 0 0 0 0 0 0 0 0 0 0 0 0 0 0 0 0 0 0 0 0 0 0 0 0 0 0 0 0
0 0 0 0 0 0 0 0 0 0 0 0 0 0 0 0 0 0 0 0 0 0 0 0 0 0 0 0 0 0 0 0 0 0 0 0 0 0 0 0 0 0 0
0 0 0 0 0 0 0 0 0 0 0 0 0 0 0 0 0 0 0 0 0 0 0 0 0 0 0 0 0 0 0 0 0 0 0 0 0 0 0 0 0 0 0
0 0 0 0 0 0 0 0 0 0 0 0 0 0 0 0 0 0 0 0 0 0 0 0 0 0 0 0 0 0 0 0 0 0 0 0 0 0 0 0 0 0 0
0 0 0 0 0 0 0 0 0 0 0 0 0 0 0 0 0 0 0 0 0 0 0 0 0 0 0 0 0 0 0 0 0 0 0 0 0 0 0 0 0 0 0
0 0 0 0 0 0 0 0 0 0 0 0 0 0 0 0 0 0 0 0 0 0 0 0 0 0 0 0 0 0 0 0 0 0 0 0 0 0 0 0 0 0 0
0 0 0 0 0 0 0 0 0 0 0 0 0 0 0 0 0 0 0 0 0 0 0 0 0 0 0 0 0 0 0 0 0 0 0 0 0 0 0 0 0 0 0
0 0 0 0 0 0 0 0 0 0 0 0 0 0 0 0 0 0 0 0 0 0 0 0 0 0 0 0 0 0 0 0 0 0 0 0 0 0 0 0 0 0 0
0 0 0 0 0 0 0 0 0 0 0 0 0 0 0 0 0 0 0 0 0 0 0 0 0 0 0 0 0 0 0 0 0 0 0 0 0 0 0 0 0 0 0
0 0 0 0 0 0 0 0 0 0 0 0 0 0 0 0 0 0 0 0 0 0 0 0 0 0 0 0 0 0 0 0 0 0 0 0 0 0 0 0 0 0 0
0 0 0 0 0 0 0 0 0 0 0 0 0 0 0 0 0 0 0 0 0 0 0 0 0 0 0 0 0 0 0 0 0 0 0 0 0 0 0 0 0 0 0
0 0 0 0 0 0 0 0 0 0 0 0 0 0 0 0 0 0 0 0 0 0 0 0 0 0 0 0 0 0 0 0 0 0 0 0 0 0 0 0 0 0 0
0 0 0 0 0 0 0 0 0 0 0 0 0 0 0 0 0 0 0 0 0 0 0 0 0 0 0 0 0 0 0 0 0 0 0 0 0 0 0 0 0 0 0
0 0 0 0 0 0 0 0 0 0 0 0 0 0 0 0 0 0 0 0 0 0 0 0 0 0 0 0 0 0 0 0 0 0 0 0 0 0 0 0 0 0 0
0 0 0 0 0 0 0 0 0 0 0 0 0 0 0 0 0 0 0 0 0 0 0 0 0 0 0 0 0 0 0 0 0 0 0 0 0 0 0 0 0 0 0
0 0 0 0 0 0 0 0 0 0 0 0 0 0 0 0 0 0 0 0 0 0 0 0 0 0 0 0 0 0 0 0 0 0 0 0 0 0 0 0 0 0 0
0 0 0 0 0 0 0 0 0 0 0 0 0 0 0 0 0 0 0 0 0 0 0 0 0 0 0 0 0 0 0 0 0 0 0 0 0 0 0 0 0 0 0
Wind_Speed
18 19 21 20 19 18 17 16 14 12 9 6 5 4 3 3 3 3 5 5 5 6 7 7 7 7 6 7 8 8 9 8 8 10 12 13 12 13 11 11 12 14 15
16 19 21 21 22 21 19 17 15 13 11 7 4 3 2 3 3 4 5 6 6 7 6 8 7 7 6 7 7 7 6 6 5 7 11 13 12 6 9 11 12 14 14
17 19 22 23 23 23 21 16 16 14 13 10 6 4 3 3 4 5 4 5 6 7 8 9 8 7 7 6 7 7 8 8 7 5 5 9 12 16 11 13 14 14 13
16 18 22 24 24 23 19 19 17 15 13 12 9 9 6 6 5 3 4 6 7 8 8 9 9 8 6 7 7 7 8 9 9 6 7 9 10 11 16 12 11 15 17
15 18 21 22 22 21 19 18 18 16 15 13 12 10 9 7 5 5 7 8 7 8 8 9 8 8 7 8 9 9 9 8 10 9 8 10 11 14 13 21 21 17 16
11 14 16 17 19 20 19 18 19 18 16 15 14 12 11 9 8 8 7 7 6 7 8 8 8 8 8 9 10 10 12 11 13 12 11 11 12 11 14 18 23 22 18
8 11 15 18 20 22 22 21 22 21 19 17 15 13 12 10 10 8 7 7 6 7 8 8 8 8 9 10 11 12 13 14 15 15 13 13 14 14 15 17 20 24 21
9 12 15 18 20 23 24 24 24 22 20 18 15 13 11 8 7 8 7 7 7 8 9 9 9 10 11 12 12 12 14 13 15 17 17 14 14 14 16 17 18 21 21
13 13 14 17 20 23 25 26 25 22 21 18 15 12 11 9 8 8 7 7 7 7 10 10 10 11 12 13 13 12 15 15 16 17 18 16 15 15 16 16 17 19 22
12 13 15 17 19 21 21 23 23 23 20 17 14 10 10 9 8 7 8 8 9 9 10 10 10 11 12 13 14 14 15 16 16 15 18 19 15 15 15 16 16 18 20
13 14 15 16 17 18 19 21 22 21 19 17 14 11 9 8 7 7 7 8 8 9 9 9 11 12 13 13 14 15 16 18 18 17 19 21 21 17 16 16 17 17 18
13 13 13 14 15 18 19 21 21 20 18 15 13 10 9 8 7 7 7 7 8 8 9 10 11 12 13 14 15 16 17 18 19 19 20 21 18 22 18 17 19 18 19
13 12 12 14 16 18 19 20 20 19 16 14 12 10 9 8 7 7 6 7 8 8 9 10 11 13 13 14 15 16 17 18 19 20 21 21 21 22 18 20 19 17 18
16 15 14 15 16 17 18 19 19 18 16 14 12 11 9 8 6 6 6 7 7 8 9 10 12 13 14 14 15 16 17 19 20 21 22 22 23 23 23 20 21 19 20
16 19 18 17 16 17 18 18 18 17 16 14 12 10 8 7 6 5 6 6 7 8 10 11 12 13 12 12 15 17 19 21 22 22 22 23 25 28 26 21 20 20 18
19 19 19 17 18 19 19 19 19 17 15 14 12 10 8 7 6 5 5 6 8 9 9 10 11 13 11 17 24 23 20 21 22 23 23 23 25 26 33 36 35 32 25
19 16 18 19 18 19 20 21 19 17 15 13 11 10 8 7 5 4 5 7 7 8 10 10 11 13 16 23 25 28 23 22 22 23 22 19 19 24 23 27 32 32 35
18 15 14 15 15 17 19 18 17 16 15 13 12 10 8 6 5 4 5 6 6 7 8 10 11 13 16 23 27 29 23 21 22 22 23 24 24 22 25 23 23 23 24
17 10 9 12 15 19 20 19 17 16 14 13 12 10 8 6 5 5 5 5 6 7 8 9 11 13 16 23 27 29 19 18 21 22 23 24 24 29 33 27 24 23 21
4 6 10 14 17 19 20 20 18 17 15 13 12 10 8 6 5 5 4 5 5 7 8 9 11 14 16 22 27 28 16 18 19 19 20 25 29 31 33 25 22 23 20
6 11 14 15 17 19 20 19 18 16 14 13 11 9 7 6 5 4 4 4 5 6 7 9 11 13 15 20 25 27 17 18 20 18 18 18 30 34 34 30 22 24 22
10 14 14 14 16 19 20 19 17 15 14 12 11 9 7 5 4 4 4 3 4 5 6 8 11 10 12 16 21 28 27 27 21 19 18 20 33 36 35 27 26 30 25
13 14 15 16 16 17 17 18 16 15 14 12 10 8 7 5 4 4 3 1 2 3 5 7 9 10 10 14 23 26 29 30 21 18 27 32 35 32 23 22 25 20 14
16 15 17 18 17 16 14 15 17 15 14 12 10 8 7 6 5 3 2 0 1 3 5 8 9 10 11 12 14 15 16 20 19 17 20 26 27 23 20 16 12 10 11
17 17 18 19 20 18 15 16 16 16 15 12 10 8 6 5 4 3 1 0 1 4 7 7 8 11 12 17 27 22 17 16 18 19 13 13 14 14 13 13 12 10 9
19 19 19 20 20 19 17 16 15 15 15 13 10 7 6 4 3 2 2 1 3 7 9 10 11 11 17 25 26 27 27 26 27 17 13 14 15 15 15 15 14 12 11
Wind_Direction
224 205 200 197 195 194 192 190 187 184 179 178 187 196 208 222 241 248 254 266 285 297 294 288 288 286 286 297 304 309 312 312 320 312 309 298 283 282 279 279 280 278 276
218 204 198 197 199 197 195 193 192 188 187 184 175 183 206 248 260 258 254 264 280 286 286 282 282 285 287 293 302 312 310 308 329 325 320 318 312 295 305 298 289 285 282
214 200 199 200 200 200 198 194 193 190 188 181 173 180 212 240 237 235 243 259 277 281 278 277 279 281 286 290 300 304 300 299 302 290 296 307 308 320 292 290 285 282 281
210 200 199 202 203 201 197 197 194 192 188 182 187 195 208 224 237 263 279 286 285 283 280 280 282 284 285 289 294 294 291 290 290 288 250 252 277 295 304 295 288 294 286
205 201 200 202 201 198 197 198 196 194 188 188 192 199 216 231 246 259 273 282 285 282 281 282 285 287 288 289 290 288 282 275 276 275 273 267 262 257 268 289 293 284 277
202 202 198 198 198 196 197 199 199 196 191 191 194 202 213 223 236 246 259 270 276 279 276 279 281 284 285 287 288 286 280 274 271 269 264 262 260 258 258 271 284 287 284
193 196 193 193 194 195 197 200 201 199 194 194 196 201 210 220 233 244 254 262 267 271 277 283 284 286 286 288 287 282 277 274 271 267 264 261 259 263 264 267 275 280 282
209 203 199 196 197 198 199 201 203 201 195 195 195 197 202 212 225 234 243 254 261 270 279 283 284 286 287 286 283 279 275 272 270 268 265 263 260 259 259 261 269 275 278
217 210 205 202 202 202 203 203 202 201 197 194 191 190 196 208 220 232 244 252 255 264 272 278 283 284 283 282 281 274 274 273 271 270 269 265 263 260 259 260 260 266 275
217 211 208 207 207 207 206 204 204 202 196 192 186 184 190 203 220 233 240 249 260 265 273 278 281 283 282 281 278 277 275 274 272 271 270 268 266 263 260 259 259 259 265
220 214 212 211 210 208 205 204 203 200 194 188 179 179 186 200 216 229 242 254 265 271 277 283 286 286 284 283 280 276 278 277 276 273 271 270 268 266 263 261 260 259 260
223 217 212 208 206 206 204 202 200 197 190 179 171 175 184 198 215 230 244 258 268 276 283 288 287 285 283 282 280 280 280 278 278 276 273 271 270 266 264 262 260 260 260
230 222 214 209 208 206 203 201 197 192 181 169 165 172 185 199 216 233 250 263 273 282 286 286 284 284 284 284 282 281 282 280 278 277 274 272 270 268 264 263 262 263 264
238 232 224 217 212 206 201 197 192 183 173 164 164 175 185 196 213 235 255 268 279 284 286 285 284 284 285 285 286 286 285 283 280 277 274 272 269 267 265 263 262 262 263
238 235 231 222 212 204 198 191 184 176 168 161 166 175 177 190 211 236 258 275 281 282 283 284 284 285 286 286 291 292 289 288 286 283 279 275 272 268 266 262 260 259 260
249 239 231 222 211 200 191 184 179 174 165 161 164 164 172 187 209 235 260 273 276 279 281 281 286 289 287 292 296 297 295 293 290 289 285 281 276 272 269 265 262 257 256
263 245 230 219 207 195 184 180 174 165 160 156 158 164 173 187 205 231 257 266 273 279 282 285 291 293 295 300 301 301 299 293 290 289 288 284 280 279 276 273 269 264 260
264 253 232 215 195 180 173 167 163 162 156 155 159 165 172 184 200 230 252 265 273 281 287 293 295 295 297 304 304 303 299 293 291 290 288 286 283 279 278 276 269 262 258
265 253 206 182 169 166 161 157 161 158 154 158 163 166 169 178 197 227 250 269 282 286 290 291 296 298 299 303 303 304 302 295 294 292 289 286 284 281 280 277 274 269 263
227 158 149 151 156 157 156 159 161 159 161 162 159 158 162 174 195 221 253 272 280 283 293 298 298 295 294 298 305 309 303 301 300 297 292 288 286 284 282 276 272 269 264
153 146 148 155 158 157 159 162 160 163 156 148 146 151 159 174 194 219 250 268 278 292 297 297 296 293 294 302 309 311 310 305 304 303 301 297 296 293 287 279 271 267 266
159 156 155 157 158 163 163 160 161 149 142 142 144 149 158 173 181 210 240 255 286 299 303 304 303 300 304 307 311 314 314 313 309 306 304 303 304 301 293 281 267 267 265
169 166 161 156 162 169 165 157 149 143 141 141 144 150 157 170 180 202 222 253 314 313 314 310 309 313 313 312 316 318 321 321 316 308 311 313 313 312 303 289 276 266 256
175 170 165 165 167 168 162 150 144 143 142 144 147 152 158 163 168 195 189 138 332 321 311 312 317 317 316 318 323 327 326 325 321 320 320 319 320 324 325 318 303 273 253
179 176 176 172 166 160 149 145 145 145 145 145 147 150 153 149 150 147 146 218 318 300 307 316 320 322 323 327 334 337 334 332 330 334 326 327 332 335 335 333 330 321 301
180 179 179 170 162 157 150 149 150 152 148 147 151 152 151 145 137 124 114 58 359 332 327 328 330 325 328 334 340 343 345 342 345 345 335 337 338 338 336 334 331 328 322